Wind_Speed
51 52 52 52 53 54 54 55 56 56 55 54 55 55 56 55 54 53 53 52 52 52 51 51 51 50 49 49 48 46 44 44 43 42 41 39 38 37
48 50 51 52 53 54 55 55 55 56 56 56 57 56 56 56 56 56 55 54 54 54 54 53 52 52 51 50 49 48 47 46 45 44 43 41 39 39
47 49 50 51 52 52 53 55 56 57 57 57 57 58 58 58 58 59 59 58 57 56 56 55 54 54 53 52 51 50 49 48 47 46 45 44 43 42
45 47 49 51 52 53 53 55 57 58 59 58 58 58 59 60 59 59 60 60 59 59 59 58 56 55 55 54 53 52 52 51 50 49 47 46 45 44
44 45 48 50 51 54 55 56 57 58 59 59 60 61 61 60 60 61 61 61 61 60 59 57 57 57 56 55 54 55 53 52 52 50 49 48 47 45
45 46 47 49 51 53 54 56 57 58 59 59 60 62 62 61 62 62 62 62 62 61 60 59 58 58 58 57 56 56 56 55 53 52 51 50 48 46
46 48 49 50 51 53 54 55 56 57 59 60 60 61 61 62 62 62 62 61 60 61 62 61 61 61 60 60 59 58 58 56 55 54 52 51 50 48
46 47 49 50 51 53 54 56 57 58 59 60 60 61 62 63 63 63 64 64 62 61 62 63 63 62 62 61 61 61 60 59 57 56 54 52 51 50
47 48 49 49 51 52 53 55 56 57 58 59 60 60 62 64 64 64 64 64 62 61 63 64 64 64 64 63 62 61 61 60 59 58 57 54 53 52
46 46 48 49 51 52 53 54 55 56 57 58 59 60 61 62 63 63 63 63 62 62 63 63 64 66 67 66 64 62 61 60 59 58 57 56 54 54
46 47 49 50 52 53 53 54 54 55 56 58 59 60 60 60 61 62 63 63 62 61 61 61 61 63 64 64 63 62 61 60 60 60 58 57 56 55
47 48 50 51 51 52 53 53 54 54 55 56 57 57 57 58 59 60 61 62 61 60 60 60 59 61 61 61 61 61 61 60 59 59 58 57 56 55
46 47 49 50 50 51 52 52 52 53 54 54 53 53 54 54 54 55 57 57 57 56 57 57 57 57 58 58 59 59 59 58 57 57 55 55 55 54
45 46 47 48 49 50 50 51 51 51 52 52 52 52 52 52 53 53 53 53 54 54 54 55 55 55 55 56 57 58 58 58 57 56 55 54 54 54
44 45 46 47 47 47 48 49 50 50 50 51 51 51 51 51 51 51 52 52 52 53 53 53 53 54 55 55 55 56 56 56 56 56 56 55 54 54
44 44 44 44 44 44 46 47 47 48 48 49 49 49 49 50 50 51 51 51 50 51 51 50 51 51 51 51 52 53 54 54 54 54 54 54 54 53
43 43 43 42 42 43 43 44 44 45 46 46 46 46 47 47 48 48 49 50 49 49 49 49 49 48 47 47 48 49 50 51 52 52 51 51 50 51
42 41 41 40 40 41 41 41 41 42 42 43 43 43 43 43 44 45 46 47 48 47 47 47 48 47 45 45 46 47 47 47 48 49 49 50 49 49
41 40 40 40 40 39 38 38 38 38 39 39 39 39 40 40 40 41 43 44 44 45 46 46 46 45 44 43 44 45 46 46 46 47 47 47 47 47
40 40 40 39 39 38 36 35 35 34 35 35 36 36 37 38 38 37 38 39 40 40 42 44 44 43 42 42 42 43 45 45 44 45 46 46 46 46
40 40 39 37 36 35 33 32 31 31 31 32 32 33 34 34 35 35 35 35 36 36 37 39 39 40 40 41 41 41 43 44 44 45 45 45 44 45
39 38 36 34 33 32 31 29 28 28 29 29 28 29 30 30 31 32 32 32 33 34 35 36 36 38 39 39 40 40 41 43 43 44 44 43 43 43
37 35 33 32 31 30 29 28 27 27 27 26 25 25 26 26 27 28 29 30 30 31 32 34 35 35 36 37 37 39 40 41 41 41 42 42 42 42
Wind_Direction
259 258 259 259 260 259 258 258 257 257 257 256 257 258 257 256 258 258 259 258 258 258 259 259 259 260 260 259 258 258 259 260 261 263 264 266 265 264
260 259 259 260 260 259 257 257 258 257 256 257 258 258 258 257 258 258 258 258 258 257 258 258 258 259 259 258 258 259 259 259 260 261 262 263 263 262
260 260 260 261 260 260 259 258 258 258 258 258 258 258 258 258 258 258 257 257 257 257 257 257 257 257 258 258 258 258 257 258 259 259 259 261 262 261
263 261 261 261 261 260 260 260 260 260 260 258 258 258 259 259 257 256 256 256 256 256 257 257 256 256 257 257 258 257 257 257 257 259 258 259 261 262
266 264 264 263 262 262 262 262 261 261 261 260 259 259 259 259 258 257 256 255 255 256 255 255 255 255 256 256 257 256 256 256 257 257 257 258 259 260
269 268 267 266 265 264 264 263 263 262 262 261 261 260 259 259 259 258 257 257 256 256 256 255 255 256 256 256 257 256 255 255 255 256 256 256 256 257
271 270 269 268 267 266 266 265 265 264 263 262 261 260 260 260 259 259 257 257 256 256 256 255 255 255 255 256 256 256 255 254 254 254 254 254 254 255
273 272 271 270 269 268 268 267 266 266 265 263 262 261 260 260 259 259 258 257 257 257 257 254 255 255 255 255 254 254 254 253 253 253 252 253 253 253
276 275 274 273 272 271 270 269 268 267 266 265 264 263 262 261 260 260 259 259 259 258 258 256 255 255 254 253 253 252 252 251 250 250 251 251 252 251
279 278 277 276 275 274 272 271 270 269 268 266 266 265 263 262 260 260 259 259 258 258 258 257 255 254 254 253 252 252 250 249 248 248 249 250 250 250
281 280 279 278 277 276 275 273 271 270 269 267 267 266 264 263 261 260 259 259 258 258 258 257 255 253 252 251 250 249 248 247 247 248 248 248 249 249
284 283 281 280 279 278 277 275 273 272 271 269 267 266 265 264 263 261 260 258 258 258 256 255 254 252 250 249 248 248 247 246 247 247 248 247 247 247
288 286 284 283 281 280 278 276 274 273 272 271 270 268 266 265 264 262 260 259 257 255 254 253 252 251 251 248 247 246 245 244 245 246 246 246 246 245
292 290 288 286 284 281 279 278 276 274 272 271 270 268 266 265 263 261 260 258 257 255 253 252 250 250 250 248 245 244 244 243 242 242 243 243 243 242
295 294 291 289 286 282 280 278 277 275 273 272 270 269 267 265 263 260 259 258 257 255 253 251 251 251 249 247 244 243 243 242 241 241 241 241 242 240
298 297 295 292 288 285 282 280 277 275 274 273 271 269 268 265 263 261 259 257 255 253 251 250 250 250 248 245 243 241 241 241 240 240 240 240 240 238
299 298 296 294 291 289 286 283 279 278 276 275 273 270 267 265 263 260 258 256 254 252 251 251 249 247 246 244 242 240 239 238 237 237 237 235 234 234
302 300 298 296 294 292 290 286 283 280 277 276 273 271 268 265 263 260 258 256 254 252 250 248 247 245 243 242 240 238 236 235 234 234 233 233 232 233
305 303 301 299 298 296 293 290 287 283 279 276 273 271 269 266 264 262 259 256 254 251 249 246 243 242 241 239 238 236 234 233 232 230 230 230 230 231
307 306 304 302 300 299 297 294 289 285 282 279 276 272 269 266 264 262 260 255 253 250 246 242 240 240 239 238 236 235 234 233 233 230 229 229 229 229
309 308 307 304 302 300 299 296 292 289 286 283 279 275 271 267 263 260 258 254 250 246 243 240 238 237 236 234 233 232 232 232 231 230 229 228 228 228
311 310 308 307 305 303 301 299 296 293 290 287 283 278 273 267 262 258 254 251 247 242 238 237 237 236 234 232 231 230 229 228 228 227 226 226 226 225
313 312 311 310 309 307 305 303 300 296 293 290 286 282 278 270 263 256 250 246 242 238 236 234 235 233 230 229 228 228 227 226 225 225 225 224 223 221
Height
5643 5644 5645 5646 5647 5649 5650 5652 5655 5658 5661 5664 5665 5666 5667 5669 5671 5673 5676 5678 5680 5681 5684 5686 5687 5689 5690 5692 5694 5696 5697 5699 5701 5702 5703 5704 5705 5706
5629 5630 5631 5633 5634 5635 5637 5638 5639 5642 5646 5650 5651 5652 5653 5654 5657 5659 5661 5663 5665 5667 5669 5671 5673 5675 5677 5679 5681 5683 5685 5687 5689 5690 5692 5693 5694 5696
5616 5617 5618 5619 5620 5621 5622 5624 5625 5626 5629 5634 5635 5636 5637 5639 5641 5643 5645 5647 5649 5652 5654 5656 5658 5660 5663 5665 5667 5669 5672 5674 5676 5678 5680 5681 5683 5685
5603 5604 5604 5605 5606 5607 5608 5609 5610 5611 5613 5616 5618 5619 5621 5623 5625 5627 5628 5630 5633 5635 5637 5640 5642 5645 5647 5650 5652 5655 5657 5660 5663 5665 5668 5669 5671 5673
5591 5591 5591 5591 5591 5592 5592 5593 5594 5595 5596 5598 5601 5602 5603 5604 5606 5609 5611 5612 5615 5617 5620 5622 5625 5628 5631 5634 5636 5639 5642 5645 5648 5651 5653 5656 5658 5660
5578 5577 5577 5576 5576 5576 5576 5576 5577 5577 5578 5579 5582 5583 5585 5586 5587 5590 5592 5594 5597 5599 5601 5605 5608 5611 5614 5617 5621 5623 5627 5630 5633 5636 5639 5642 5645 5647
5565 5563 5562 5561 5561 5560 5560 5560 5560 5560 5560 5561 5562 5564 5566 5567 5569 5570 5573 5575 5578 5580 5582 5586 5589 5593 5596 5599 5603 5606 5610 5613 5617 5620 5624 5627 5630 5633
5551 5549 5547 5546 5545 5544 5543 5542 5542 5541 5542 5542 5543 5545 5546 5547 5549 5550 5553 5555 5559 5562 5562 5567 5569 5573 5577 5581 5584 5588 5592 5596 5600 5604 5608 5612 5615 5618
5537 5534 5532 5530 5529 5527 5526 5524 5523 5522 5522 5523 5524 5524 5526 5527 5528 5530 5531 5534 5538 5540 5541 5546 5548 5552 5556 5560 5565 5569 5573 5578 5583 5587 5591 5595 5599 5603
5522 5519 5517 5515 5512 5510 5509 5507 5506 5504 5504 5504 5504 5504 5504 5505 5506 5508 5509 5512 5516 5518 5519 5524 5528 5531 5535 5539 5544 5549 5554 5559 5564 5569 5574 5578 5583 5587
5508 5504 5501 5499 5496 5493 5492 5490 5489 5486 5485 5484 5484 5484 5484 5484 5485 5486 5488 5491 5495 5498 5498 5502 5506 5509 5514 5519 5524 5529 5534 5539 5545 5550 5556 5561 5565 5570
5493 5489 5485 5482 5479 5475 5473 5471 5470 5468 5467 5466 5465 5464 5464 5464 5464 5465 5467 5470 5473 5478 5479 5481 5485 5489 5494 5500 5504 5509 5514 5520 5526 5532 5537 5543 5548 5553
5477 5473 5469 5465 5461 5458 5455 5453 5451 5450 5448 5447 5446 5446 5445 5445 5445 5445 5446 5449 5453 5457 5460 5462 5466 5470 5474 5481 5486 5491 5496 5502 5508 5514 5519 5525 5530 5536
5462 5458 5453 5448 5444 5441 5438 5435 5433 5432 5430 5429 5429 5428 5427 5427 5427 5427 5428 5431 5434 5438 5441 5443 5448 5452 5456 5462 5468 5474 5478 5484 5490 5496 5502 5508 5514 5519
5448 5442 5437 5433 5428 5425 5421 5418 5416 5415 5413 5412 5411 5410 5410 5409 5409 5410 5411 5414 5417 5420 5423 5426 5430 5434 5438 5444 5450 5456 5461 5466 5472 5478 5484 5491 5497 5503
5434 5429 5423 5418 5413 5409 5406 5402 5400 5398 5396 5395 5394 5393 5392 5392 5392 5393 5395 5397 5400 5403 5406 5409 5413 5417 5421 5426 5432 5438 5443 5449 5455 5461 5467 5474 5480 5487
5422 5416 5410 5405 5400 5395 5391 5387 5384 5382 5380 5378 5377 5376 5376 5376 5376 5377 5379 5381 5384 5388 5391 5393 5397 5401 5405 5410 5415 5421 5427 5432 5438 5445 5451 5458 5465 5473
5409 5403 5398 5392 5387 5382 5377 5373 5369 5367 5365 5363 5361 5361 5360 5360 5361 5362 5363 5365 5368 5372 5375 5378 5381 5385 5390 5395 5400 5406 5411 5417 5423 5430 5437 5444 5451 5459
5397 5391 5385 5380 5375 5369 5365 5360 5357 5353 5350 5349 5347 5346 5346 5346 5347 5347 5348 5350 5353 5356 5360 5363 5367 5371 5376 5382 5388 5393 5398 5404 5410 5417 5424 5431 5439 5446
5385 5379 5373 5368 5362 5357 5352 5348 5344 5341 5338 5336 5334 5333 5332 5333 5333 5334 5335 5337 5339 5342 5345 5349 5354 5359 5364 5370 5375 5381 5386 5392 5399 5406 5412 5419 5426 5433
5374 5368 5362 5356 5351 5346 5341 5337 5333 5330 5327 5324 5322 5321 5320 5320 5320 5321 5323 5325 5327 5330 5334 5338 5342 5347 5351 5357 5363 5369 5375 5380 5387 5394 5401 5407 5414 5421
5363 5357 5351 5345 5340 5336 5331 5327 5324 5320 5317 5314 5312 5310 5308 5308 5308 5309 5311 5313 5316 5319 5323 5327 5331 5335 5341 5346 5352 5359 5364 5370 5376 5383 5390 5397 5404 5412
5353 5347 5342 5336 5331 5327 5323 5319 5315 5312 5308 5305 5303 5301 5299 5298 5298 5299 5300 5303 5306 5309 5313 5317 5321 5326 5331 5336 5342 5348 5354 5360 5367 5373 5380 5387 5395 5402